Vorticity
5 4 4 4 4 4 4 4 3 2 0 0 1 0 0 1 1 2 3 6 9 12 15 15 14 13 11 10 9 8 8 8 8 7 7 6 6 6 6 5 5 5 5 6 6 6 6 6 5 5 5 5 5 5 4 4 4 4 4 4 4 4 4 4 5 5 5 5 5 5 5 5 5 5 6 6 6 6 6 6 6 6 6 6 6 6 6 6 6 6 6 6 6 6 6 6 6 6 6 6 5 5 5
5 4 4 4 4 4 4 4 2 1 1 1 1 0 0 1 2 3 4 7 11 14 15 14 13 11 10 8 8 8 8 7 7 7 6 6 6 6 5 5 5 5 5 6 6 6 6 5 5 5 5 5 5 5 4 4 4 4 4 4 4 4 4 5 5 5 5 5 5 5 5 6 6 6 6 6 6 6 6 6 6 6 6 6 6 6 6 6 6 6 6 6 6 6 5 5 5 6 6 6 6 6 5
4 4 4 4 4 4 4 3 2 1 1 1 1 1 1 2 2 4 6 9 12 14 15 13 12 10 8 8 7 7 7 7 7 7 6 6 6 6 6 5 5 5 6 6 6 6 5 5 5 5 5 5 5 4 4 4 4 4 4 4 4 4 5 5 5 5 5 5 5 5 6 6 6 6 6 6 6 6 6 6 6 6 6 6 6 6 6 6 6 6 6 6 5 5 5 5 5 5 5 6 6 6 5
4 4 4 4 4 4 4 2 1 1 1 1 1 1 1 2 3 5 7 11 13 14 14 12 10 8 7 7 7 7 7 7 7 7 7 7 7 7 6 6 6 6 6 6 6 5 5 4 5 5 5 4 4 4 4 4 4 4 4 4 4 5 5 5 5 5 5 5 6 6 6 6 6 6 6 6 6 6 6 6 6 6 6 6 6 6 6 6 6 6 5 5 5 5 5 5 5 5 5 5 6 6 6
4 4 4 4 4 4 3 2 1 1 1 1 0 1 1 2 4 6 9 12 14 14 13 11 9 7 7 7 7 7 7 7 7 7 8 8 8 7 7 6 6 6 7 7 6 5 5 4 4 4 4 4 4 4 4 4 4 4 5 5 5 5 5 5 6 6 6 6 6 6 6 6 6 6 6 6 6 6 6 6 6 6 6 6 6 6 6 5 5 5 5 5 5 5 5 5 5 5 5 6 6 6 6
4 4 4 4 3 3 2 1 1 1 1 0 0 1 2 3 5 8 11 13 14 13 11 9 8 7 7 7 7 7 7 8 8 8 8 8 8 7 7 6 6 6 7 6 6 5 4 4 4 4 4 4 4 4 4 4 5 5 5 5 6 6 6 6 6 6 6 6 6 6 6 6 6 6 6 6 6 6 6 6 6 6 6 5 5 5 5 5 5 5 5 5 5 5 5 5 6 6 6 6 6 6 6
4 4 4 4 3 3 2 1 1 1 1 0 0 1 2 4 6 9 12 13 13 12 10 8 7 7 7 7 7 7 8 8 8 8 8 8 8 8 7 6 6 6 6 5 5 4 4 4 4 4 4 4 4 4 5 5 6 6 6 6 6 6 6 6 6 6 6 6 6 6 6 6 6 6 6 6 6 6 6 6 5 5 5 5 5 4 4 4 4 4 4 4 5 5 5 5 6 6 6 6 6 6 6
5 4 4 3 3 2 1 1 1 1 0 0 0 1 2 5 7 10 13 13 13 11 9 8 7 7 7 7 7 8 8 8 8 8 8 8 8 8 8 7 6 6 5 5 4 4 4 4 4 4 4 5 5 6 6 6 7 7 7 7 6 6 6 6 6 6 6 6 6 6 6 6 6 6 6 6 6 5 5 5 4 4 4 4 4 4 4 4 4 4 4 5 5 5 6 6 6 6 6 6 6 6 6
5 4 4 3 2 2 1 1 1 1 0 0 1 2 3 6 8 11 13 13 12 11 9 8 8 8 8 7 7 7 8 8 8 8 7 7 7 7 8 7 6 6 5 5 5 5 5 5 5 5 5 6 6 7 7 7 7 7 7 7 7 7 7 6 6 6 6 6 6 6 6 6 6 6 6 5 5 5 4 4 4 4 3 3 3 4 4 4 4 4 5 5 5 6 6 6 7 7 7 7 7 7 7
5 4 4 3 2 1 0 1 1 1 0 0 1 2 4 6 9 12 13 13 12 10 9 8 8 8 8 7 7 7 7 8 8 7 6 6 6 6 7 7 6 6 5 5 5 5 5 6 6 6 6 7 7 8 8 8 8 7 7 7 7 7 7 6 6 6 6 6 6 6 6 6 6 5 5 4 4 4 3 3 3 3 3 3 4 4 4 4 5 5 5 6 6 6 7 7 7 7 7 7 7 7 7
4 4 4 3 2 1 0 1 1 1 0 1 1 3 4 7 10 12 13 13 12 10 9 9 8 8 7 7 7 7 7 7 7 7 6 5 5 5 6 6 6 6 6 6 6 6 6 6 7 7 7 8 8 8 8 8 8 7 7 7 7 7 7 6 6 6 6 6 6 6 6 5 5 4 4 4 3 3 3 3 3 3 4 4 4 4 5 5 5 6 6 6 7 7 7 8 8 8 8 7 7 7 7
4 4 3 2 1 0 0 1 1 1 1 1 2 3 5 8 10 12 13 13 12 10 10 9 8 7 7 6 6 6 6 7 7 6 5 4 4 4 5 5 6 6 6 6 6 7 7 7 7 8 8 8 8 8 8 8 8 7 7 7 7 7 7 6 6 6 6 6 6 6 5 5 4 4 3 3 3 3 3 3 4 4 4 5 5 6 6 6 6 7 7 7 7 8 8 8 8 8 8 8 7 7 7
3 3 3 2 1 0 -0 0 1 1 1 1 2 4 6 8 11 13 13 12 11 10 9 8 7 7 6 6 6 6 6 6 6 6 5 4 4 4 5 6 6 6 6 7 7 7 7 7 8 8 8 8 8 8 8 7 7 7 7 7 6 6 7 6 6 6 6 6 5 5 4 4 3 3 3 3 3 3 4 4 4 5 5 6 6 6 7 7 7 7 7 8 8 8 8 8 8 8 8 8 8 7 7
2 2 3 2 1 0 -0 1 1 1 1 2 3 4 6 9 11 13 13 12 11 10 9 8 7 6 6 6 5 5 5 6 6 6 6 5 5 5 6 6 6 6 7 7 7 7 7 7 7 7 8 7 7 7 7 7 7 6 6 6 6 6 6 6 6 6 6 5 5 4 4 3 3 3 3 3 4 4 4 5 5 6 6 6 7 7 7 7 8 8 8 8 8 8 8 8 8 8 8 8 8 7 7
2 2 3 2 1 0 0 1 1 1 1 2 3 5 7 10 11 12 12 12 10 9 8 7 6 6 5 5 5 5 5 5 6 6 6 6 5 5 6 6 6 6 6 6 6 6 6 6 7 7 7 7 6 6 6 6 6 6 6 6 6 6 6 6 6 6 5 5 4 3 3 3 3 3 3 4 4 5 5 6 6 6 7 7 7 7 8 8 8 8 8 8 8 8 8 8 8 8 8 8 7 7 7
2 2 2 2 1 0 0 1 1 1 1 2 4 6 7 10 11 12 12 11 10 9 7 6 6 5 5 5 5 5 5 5 6 6 6 6 6 5 5 6 6 6 6 6 5 5 5 6 6 6 6 6 6 6 6 6 6 6 6 6 6 6 6 6 5 5 4 4 4 3 3 3 3 3 4 4 4 5 5 6 6 7 7 7 7 7 8 8 8 8 8 8 8 8 8 8 8 8 7 7 7 7 7
2 2 2 2 1 1 1 1 1 2 2 3 4 6 8 10 11 12 11 11 9 8 7 6 5 5 5 5 5 5 5 5 5 6 6 6 6 5 5 5 6 6 6 5 4 4 5 6 6 6 6 6 6 6 6 6 6 6 6 6 6 6 5 5 5 4 4 4 3 3 3 3 3 4 4 4 4 5 5 6 6 7 7 7 7 7 7 8 8 8 8 8 8 8 8 7 7 7 7 7 7 7 7
3 2 2 2 1 1 1 2 2 2 2 3 5 6 8 10 11 11 11 10 9 7 6 6 5 5 5 5 5 5 5 5 5 6 6 6 6 5 5 5 6 6 6 5 5 5 6 7 7 7 7 6 6 6 6 6 6 6 6 6 6 6 5 5 4 4 4 3 3 3 3 3 3 4 4 4 4 5 5 6 6 6 7 7 7 7 7 8 8 8 8 8 8 8 8 7 7 7 7 7 7 7 7
3 2 2 2 1 1 2 2 2 2 2 4 5 6 7 9 11 11 11 10 8 7 6 5 5 5 5 5 5 5 5 5 5 5 6 6 6 5 5 5 6 6 6 5 5 6 7 8 8 8 7 7 6 6 6 6 6 6 6 6 6 5 5 5 4 4 4 3 3 3 3 3 3 3 3 4 4 4 4 5 6 6 6 7 7 7 7 7 8 8 8 8 8 8 8 7 7 7 7 7 7 7 7
3 2 2 1 1 1 1 2 1 2 2 3 4 5 7 9 10 11 10 9 8 6 5 5 5 5 5 5 5 5 5 5 5 5 6 6 6 5 5 5 6 6 6 5 6 6 8 8 8 8 7 7 7 6 6 6 6 6 6 6 6 5 5 4 4 4 4 3 3 3 3 3 3 3 3 3 3 3 4 4 5 6 6 6 7 7 7 7 7 8 8 8 7 7 8 7 7 7 7 7 7 7 7
3 2 2 1 0 0 1 1 0 0 1 2 3 4 6 9 11 11 10 9 7 6 5 5 5 5 5 5 5 5 5 5 5 6 5 5 5 5 5 6 6 6 5 5 5 6 7 7 7 7 7 7 6 6 6 6 6 6 6 6 5 5 4 4 4 3 3 3 3 3 3 3 2 2 2 2 2 3 3 4 4 5 6 6 6 7 7 7 7 7 7 7 7 7 8 7 7 7 7 7 7 7 7
3 2 2 1 -0 -1 -0 -0 -1 -1 1 2 2 4 7 10 11 12 10 9 7 6 5 5 5 5 5 5 5 5 5 5 5 5 5 5 5 5 5 6 6 6 5 5 5 6 6 6 6 6 6 6 6 6 6 6 6 6 6 6 5 5 4 4 3 3 2 3 3 2 2 2 2 2 2 2 2 2 3 3 4 4 5 6 6 6 7 7 7 7 7 7 7 7 7 7 7 7 7 7 7 7 7
3 3 3 1 0 -1 -1 -1 -1 -1 1 2 3 5 8 11 12 12 12 9 7 5 4 4 4 5 5 5 5 5 5 5 5 5 5 5 5 5 5 5 6 5 5 4 5 5 6 6 6 6 6 6 6 6 6 6 6 6 6 6 6 5 4 4 3 2 2 2 2 2 1 2 2 2 2 2 2 2 3 3 3 4 4 5 6 6 6 7 7 7 7 7 7 7 7 7 7 7 7 7 7 7 6
4 3 3 2 1 0 -0 -1 -1 -0 1 2 4 6 8 12 13 13 12 9 7 5 4 4 4 4 4 5 5 5 5 5 5 5 5 5 5 4 4 5 5 5 4 4 4 5 5 5 5 5 5 5 5 5 5 6 6 6 6 6 6 5 5 4 4 3 3 2 2 2 2 2 2 2 2 2 2 2 2 3 3 4 4 4 5 6 6 6 7 7 7 7 7 7 7 7 7 7 7 7 7 6 6
4 4 3 2 1 0 -0 -0 -0 0 1 3 5 7 8 12 13 13 11 8 6 5 4 4 4 4 4 4 4 4 4 4 4 4 4 5 5 4 4 4 5 5 4 4 5 5 5 5 5 5 5 5 5 4 5 5 5 5 5 5 5 5 4 4 4 4 3 3 3 3 3 3 3 2 2 2 2 2 2 3 3 3 4 4 4 5 6 6 6 6 7 7 7 7 7 7 7 7 7 7 6 6 6
5 4 3 2 1 0 0 1 1 1 2 4 6 8 9 11 13 13 11 8 6 5 4 4 4 4 3 4 4 4 4 4 4 4 4 4 4 4 4 4 4 4 4 4 5 5 5 5 5 5 5 5 4 4 4 4 4 4 4 4 4 4 4 4 4 4 4 4 4 4 4 3 3 3 3 3 3 3 3 3 3 3 3 4 4 5 5 5 6 6 6 7 7 7 7 7 7 6 6 6 6 6 6
5 4 3 2 1 1 1 2 2 2 3 4 6 8 9 11 12 13 11 8 6 4 4 4 3 3 3 3 4 4 4 4 3 3 3 4 4 4 4 3 3 4 4 4 5 5 5 5 5 5 5 4 4 4 4 4 4 4 4 4 4 4 4 4 4 4 4 4 4 4 4 4 3 3 3 3 3 3 3 3 3 3 3 4 4 4 5 5 5 6 6 6 6 6 6 6 6 6 6 6 6 6 6
5 4 3 2 2 1 1 2 2 3 3 4 6 9 11 10 11 12 11 8 6 4 4 4 4 3 3 3 3 4 4 3 3 3 3 4 4 4 4 3 2 3 4 4 4 4 4 4 5 5 5 5 4 4 4 4 4 4 4 4 4 4 4 4 4 4 4 4 4 4 4 4 4 4 4 4 4 4 4 4 3 3 3 4 4 4 4 5 5 5 6 6 6 6 6 6 6 6 6 6 6 6 6
6 4 4 3 2 2 1 1 2 3 3 4 6 9 12 12 11 10 11 8 6 4 3 4 4 4 3 3 3 3 3 2 2 2 3 3 4 4 4 3 2 2 3 4 4 4 4 4 4 5 5 5 5 4 4 4 5 5 5 5 5 5 5 4 4 4 4 4 4 4 4 4 4 4 4 4 4 4 4 4 4 4 4 4 4 4 4 4 5 5 5 5 6 6 6 6 6 6 6 6 6 6 6
6 4 4 4 3 2 1 1 2 3 3 5 7 8 12 13 12 10 10 8 6 4 4 4 4 4 3 4 3 2 2 2 2 2 2 2 3 4 4 3 3 2 2 3 4 4 4 4 4 4 5 5 5 5 5 5 5 5 5 5 5 5 5 5 5 5 5 5 5 5 5 5 5 5 5 4 4 4 4 4 4 4 4 4 4 4 4 4 4 5 5 5 5 5 5 6 6 6 6 6 6 6 6
5 4 4 3 3 2 2 1 2 3 3 6 8 10 11 13 13 12 9 7 6 5 4 4 4 4 4 4 4 3 2 1 1 2 2 2 2 3 3 4 3 3 2 3 4 4 4 4 4 4 5 5 5 5 5 5 5 5 5 5 5 5 5 5 5 5 6 6 6 5 5 5 5 5 5 5 5 5 5 4 4 4 4 4 4 4 4 4 4 4 5 5 5 5 5 5 5 5 5 5 6 6 6
6 5 4 3 3 2 2 1 2 2 4 6 8 10 12 13 13 11 9 7 6 4 4 3 3 4 4 4 4 3 2 1 2 2 3 2 2 2 3 3 3 3 3 3 3 4 4 4 4 4 4 4 4 4 4 5 5 5 5 5 5 5 5 5 5 5 5 5 5 5 6 6 6 6 6 6 6 5 5 5 5 4 4 4 4 4 4 4 4 4 4 4 4 4 5 5 5 5 5 5 5 5 6
7 6 4 3 2 2 1 1 2 3 3 6 8 10 12 14 13 10 8 7 5 4 3 3 3 3 4 4 4 4 2 2 3 4 4 3 3 3 3 3 3 4 4 2 2 3 3 3 3 3 3 3 4 4 4 4 4 4 4 4 4 4 4 4 4 4 4 4 4 4 5 5 5 6 6 6 6 6 6 5 5 5 5 5 4 4 4 4 4 4 4 4 4 4 4 5 5 5 5 5 5 5 5
7 6 4 3 2 2 1 2 2 3 3 5 8 10 12 13 12 10 7 6 4 3 2 2 2 2 2 4 4 4 2 2 4 4 5 4 3 3 4 3 3 4 4 2 2 2 3 3 3 3 3 2 2 3 3 3 3 3 2 2 2 2 2 2 2 2 2 3 3 3 4 4 4 5 5 6 6 6 6 6 6 5 5 5 5 4 4 4 4 4 4 4 4 4 4 4 4 4 4 4 5 5 5
7 6 4 3 2 3 3 2 2 3 4 5 8 11 13 13 11 8 6 4 3 2 1 0 1 1 2 3 3 3 2 3 4 4 5 5 4 4 4 3 4 4 4 3 2 2 2 2 2 2 2 2 2 2 2 2 2 2 2 1 1 1 1 1 1 1 1 1 2 2 2 3 3 4 4 5 5 6 6 6 6 6 5 5 5 5 5 5 5 4 4 4 4 4 4 4 4 4 4 4 4 4 4
7 6 4 3 3 3 3 2 2 3 4 6 8 11 13 12 9 7 5 4 2 2 2 0 0 1 2 3 3 3 2 4 4 4 5 5 5 4 4 3 3 4 3 3 2 2 2 2 2 2 2 2 2 2 2 2 1 1 1 1 0 0 0 0 0 0 0 1 1 1 2 2 3 3 4 4 5 6 6 6 6 6 6 6 5 5 5 5 5 5 4 4 4 4 4 4 4 4 4 4 4 4 4
8 6 4 4 3 3 3 2 2 3 5 6 8 10 11 10 8 6 4 3 2 2 2 1 0 1 2 3 2 3 4 5 5 5 4 4 4 4 3 3 3 3 2 3 3 2 1 1 2 2 2 2 2 2 2 1 1 0 0 0 0 0 0 -0 -0 0 0 1 1 1 2 2 3 3 4 4 5 5 6 6 6 6 6 6 6 5 5 5 5 5 5 5 4 4 4 4 4 4 4 4 4 4 4
7 5 4 4 4 3 2 1 1 3 6 7 8 9 10 9 8 6 4 3 3 3 3 1 1 1 2 2 2 3 5 6 6 5 5 4 4 4 3 3 3 3 2 3 3 2 0 1 1 1 2 2 2 2 2 1 1 0 0 0 0 0 0 0 0 0 0 1 1 2 2 2 3 3 4 4 4 5 5 6 6 6 6 6 6 6 6 5 5 5 5 5 5 4 4 4 4 3 3 3 4 4 4
6 4 6 5 4 3 2 0 0 2 5 7 8 9 10 8 7 6 4 2 2 3 2 2 1 1 1 0 1 2 5 6 6 5 5 4 4 4 4 3 3 3 2 3 3 2 1 1 1 0 1 1 1 2 2 1 1 0 0 0 0 0 0 0 0 1 1 1 2 2 2 3 3 4 4 4 4 5 5 6 6 6 6 6 6 6 6 6 6 5 5 5 5 5 4 4 4 3 3 3 3 3 4
6 7 8 6 4 2 1 -1 -1 0 4 6 8 9 11 8 6 5 3 2 2 2 2 1 1 1 0 -0 0 2 4 5 5 5 4 4 4 4 4 4 3 3 2 3 3 3 2 1 1 0 -0 0 1 1 1 1 1 0 0 0 0 0 0 1 1 1 1 2 2 2 2 3 4 4 4 4 4 5 5 6 6 6 6 6 6 6 6 6 6 6 6 6 5 5 5 4 4 4 3 3 3 3 3
9 11 12 8 5 2 -0 -2 -3 -1 3 6 8 9 11 9 6 4 3 2 2 2 2 0 0 -0 -0 -0 -0 1 4 5 5 4 4 3 4 4 5 4 4 3 3 3 3 3 3 2 1 1 0 0 0 0 0 1 1 1 0 0 0 1 1 1 1 1 2 2 2 2 3 3 4 4 4 4 5 5 5 6 6 6 6 6 6 6 6 6 6 6 6 6 6 5 5 4 4 4 4 3 3 3 3
13 15 16 10 5 2 -0 -3 -3 -2 2 6 8 10 11 9 6 4 2 2 2 2 2 0 -1 -2 -2 -1 -1 0 3 4 4 4 3 3 3 4 5 5 4 4 4 3 3 3 3 2 2 2 1 1 0 -0 0 1 1 1 1 0 1 1 1 1 1 2 2 2 2 2 3 3 4 4 4 5 5 5 6 6 6 6 6 6 6 6 6 6 6 6 6 6 6 5 5 4 4 4 3 3 3 3 3
12 16 18 11 6 2 -0 -3 -3 -1 3 6 9 10 11 10 6 3 1 1 2 2 2 0 -1 -2 -3 -2 -1 1 2 4 4 3 2 3 3 4 4 4 4 4 4 4 3 3 3 3 3 2 2 2 1 0 0 1 1 1 1 1 1 1 2 2 2 2 2 2 2 2 3 3 4 4 4 5 5 6 6 6 6 6 6 6 6 6 6 6 7 7 7 7 6 5 5 4 4 4 3 3 3 2 2
8 13 17 12 7 3 -0 -3 -3 0 4 7 9 10 11 9 6 2 0 1 2 2 2 0 -1 -2 -3 -2 -1 0 1 2 3 3 2 3 4 4 4 3 3 4 4 4 4 4 3 3 3 3 3 2 1 0 0 0 1 1 1 1 1 2 2 2 2 2 2 2 2 2 2 2 3 4 4 5 6 6 6 7 7 7 7 7 6 6 6 6 7 7 7 7 6 6 5 4 4 4 3 3 2 2 2
5 8 12 12 10 5 1 -4 -4 -0 6 7 8 10 11 9 5 2 0 0 1 2 3 1 -2 -3 -4 -2 -1 -0 -0 0 1 2 3 3 4 4 4 3 2 3 3 3 4 4 4 3 3 3 3 2 1 0 0 0 1 1 1 1 1 2 2 3 3 2 2 2 2 2 1 2 2 3 4 4 5 6 7 7 7 7 7 7 7 7 7 7 7 7 7 7 7 6 5 5 4 4 4 3 2 2 1
4 5 7 11 12 9 1 -7 -6 0 7 6 7 8 10 8 5 2 0 1 1 2 2 1 -1 -4 -5 -4 -2 -1 -1 -1 0 2 2 3 4 4 4 2 2 2 2 2 3 3 4 4 4 3 3 2 1 1 1 1 1 1 1 1 1 1 2 2 3 3 3 2 2 1 1 1 1 2 3 4 5 6 6 7 8 8 8 8 7 7 7 7 7 7 8 8 7 6 6 5 5 4 4 3 3 2 1
5 6 6 10 12 10 -0 -9 -5 4 8 6 5 7 9 8 5 2 0 0 1 2 2 1 -0 -2 -4 -4 -3 -2 -1 -1 0 1 2 2 3 4 4 3 2 2 1 1 2 2 2 3 3 3 3 2 2 1 1 1 2 2 1 1 1 1 2 2 2 3 3 2 2 1 0 0 0 1 2 3 4 5 6 7 8 8 8 8 8 7 7 7 7 8 8 8 7 7 6 5 5 4 4 3 3 2 2
7 8 8 10 10 6 -4 -5 4 12 9 6 4 5 8 8 5 2 0 -0 0 1 2 1 -0 -1 -2 -2 -2 -2 -1 -1 -1 0 2 3 2 2 2 3 3 2 0 0 0 0 1 2 2 3 3 3 2 2 1 2 2 2 2 2 1 1 2 2 2 2 2 2 1 1 0 -0 0 1 2 3 4 5 6 7 8 8 9 8 8 8 7 7 8 8 8 8 8 7 6 6 5 4 4 3 3 2 2
8 10 12 11 7 1 -6 6 15 18 9 6 4 4 6 7 5 3 0 -0 -1 -0 1 0 -1 -2 -1 -1 -1 -1 -2 -2 -1 -1 0 4 4 3 1 1 1 1 0 -1 -1 -0 -0 0 1 2 3 3 2 2 1 2 1 1 1 2 2 2 2 2 2 2 1 1 0 0 -0 -0 0 0 1 2 3 5 6 7 8 8 9 9 8 8 8 8 8 8 9 9 8 7 6 6 5 4 4 3 2 2 1
8 10 13 12 5 -2 -6 10 18 17 8 6 4 3 4 6 5 3 1 -0 -1 -1 0 -0 -2 -2 -2 -2 -1 -1 -2 -2 -1 1 0 1 3 4 4 2 0 -0 -1 -1 -1 -1 -1 -0 0 1 2 2 2 2 1 1 1 0 0 0 1 1 2 2 2 2 1 0 0 0 0 1 1 1 1 2 3 4 6 7 8 8 8 9 9 8 8 8 8 8 9 9 8 8 7 6 5 4 4 3 2 1 1
8 9 12 11 6 -0 -3 9 14 12 5 5 4 3 3 5 5 3 2 0 -0 -1 -0 0 -1 -2 -4 -3 -2 -2 -2 -1 -0 1 2 1 -0 0 2 4 4 2 0 0 -1 -2 -1 -1 -1 0 1 1 2 2 2 2 1 0 -1 -1 -1 -1 0 1 2 2 2 1 1 1 2 2 2 2 1 2 2 4 6 7 8 9 9 9 9 9 8 8 8 8 9 9 9 8 7 6 5 4 4 2 2 1 1
8 8 11 11 7 3 -1 6 8 6 2 2 3 4 5 5 5 4 2 1 0 -0 -1 -0 -0 -1 -4 -4 -3 -2 -3 -1 0 0 1 2 -0 -2 -1 3 4 4 3 2 1 0 -0 -1 -2 -2 -2 0 2 3 3 3 2 1 -0 -2 -2 -3 -2 -0 1 2 2 2 2 2 2 2 2 2 2 1 2 2 4 6 8 9 10 9 9 9 8 8 8 8 9 9 9 8 7 6 6 4 4 2 1 0 0
15 11 10 10 8 5 3 6 6 4 1 2 4 6 7 6 5 4 3 2 1 -0 -1 -2 -1 -0 -1 -3 -3 -2 -3 -1 -0 -0 -2 0 1 1 -0 1 2 2 3 3 5 6 3 1 -1 -3 -4 -2 0 2 2 2 2 2 2 0 -2 -3 -3 -2 -0 2 3 4 4 4 3 2 2 2 1 1 0 0 1 3 6 8 10 10 10 9 8 8 8 9 9 9 9 8 8 6 6 5 4 2 1 0 0
32 29 20 14 11 11 13 10 7 5 4 7 7 6 5 5 6 5 4 2 1 0 -1 -2 -2 -1 0 -1 -2 -2 -1 -1 -1 -0 -2 -2 -0 2 3 1 1 1 2 2 4 7 6 2 -0 -2 -2 -3 -2 -1 0 1 3 4 4 3 1 -1 -2 -2 -0 2 4 5 5 4 3 2 2 1 0 0 -1 -2 -2 -1 2 6 9 11 10 9 8 8 8 9 9 9 9 8 8 7 6 5 4 2 1 0 -0
25 35 36 27 22 21 21 16 10 5 2 7 8 7 2 4 5 6 4 3 1 0 -1 -1 -1 -1 0 1 -1 -2 -1 -1 -1 -2 -2 -3 -3 -1 2 3 3 2 3 2 2 4 6 3 1 -0 -0 -2 -4 -4 -2 0 2 5 6 6 5 3 0 -1 -1 1 3 4 5 4 3 2 1 0 0 -1 -2 -2 -2 -2 -1 2 6 9 10 10 8 8 9 10 10 10 9 9 8 7 6 5 4 2 1 0 -0
-1 11 24 25 22 18 18 17 12 7 4 7 7 6 2 3 4 5 5 3 2 0 -1 -1 -1 -1 -1 1 0 -1 -2 -1 -2 -2 -2 -2 -3 -3 -1 2 3 3 3 3 2 3 4 5 5 3 0 -3 -4 -5 -3 -1 1 3 5 6 6 5 3 0 -1 -2 -1 0 1 2 2 1 1 0 0 -0 -1 -1 -1 -2 -1 0 3 6 8 9 8 8 9 10 11 10 10 9 8 7 6 5 4 3 1 0 -0
-4 -1 6 12 12 11 11 14 14 10 6 5 5 4 3 3 4 4 5 4 2 1 -1 -1 -0 -0 -1 -1 -1 -1 -1 -1 -1 -2 -3 -2 -1 -1 -1 -0 1 2 3 3 5 6 5 5 5 5 3 -3 -6 -6 -3 -1 0 2 4 6 7 7 6 3 0 -2 -4 -5 -5 -4 -4 -3 -2 -1 -1 -0 -0 -1 -1 0 1 1 2 4 6 8 8 8 9 10 11 11 10 9 8 7 6 5 4 3 2 1 -0
2 2 3 5 6 7 10 15 16 13 6 2 2 3 4 3 3 4 5 5 4 2 0 -1 -0 0 1 -0 -1 -1 -1 -1 -0 -0 -2 -2 -2 -1 -1 -1 0 1 2 2 2 2 3 5 5 4 4 -2 -5 -5 -2 1 2 3 4 7 8 9 8 5 2 -0 -4 -6 -7 -8 -8 -7 -5 -4 -3 -2 -1 -1 -0 1 2 3 4 4 6 7 8 9 9 10 11 11 10 10 8 7 6 6 5 4 2 1 0
8 8 8 7 6 7 9 16 19 17 7 2 1 2 4 4 3 4 5 6 5 3 1 0 0 1 2 2 0 -1 -1 -1 -0 0 0 -1 -2 -2 -1 -1 -1 -1 0 1 2 3 4 6 6 3 -1 -2 0 2 1 2 3 4 5 7 8 8 8 7 5 3 1 -1 -2 -4 -4 -4 -4 -4 -3 -2 -1 0 2 3 4 5 6 6 6 7 9 10 10 10 11 11 10 10 8 7 6 6 5 4 3 2 0
13 12 12 11 10 8 8 15 20 20 11 5 2 2 4 5 4 4 4 5 5 4 2 2 2 3 3 3 2 1 -0 -0 -0 -0 0 1 1 0 -2 -2 -1 -1 0 2 4 5 7 6 5 1 -5 -5 -1 3 3 4 4 3 3 4 5 6 7 7 7 7 7 6 5 4 3 2 1 1 1 1 2 3 4 4 6 7 9 8 8 8 8 10 11 11 11 11 10 9 8 7 6 6 6 5 3 2 -0
16 15 13 11 10 9 8 11 16 18 15 8 5 4 5 6 5 4 3 4 5 4 3 3 3 4 4 4 3 2 1 0 0 -0 -1 0 1 1 -1 -2 -2 -1 0 2 4 6 9 9 4 -2 -8 -5 -3 -1 1 1 1 2 3 3 3 4 5 6 7 7 8 8 7 7 6 6 5 4 4 4 4 4 4 5 7 10 11 11 10 9 8 10 11 12 12 11 10 9 8 7 7 6 6 5 3 2 -0
Height
3168 3168 3168 3169 3169 3170 3170 3170 3171 3171 3171 3171 3171 3171 3171 3171 3171 3171 3171 3171 3171 3170 3170 3170 3170 3170 3170 3170 3170 3170 3170 3171 3171 3171 3171 3171 3171 3172 3172 3172 3172 3172 3172 3172 3172 3173 3173 3173 3173 3173 3173 3174 3174 3174 3174 3174 3175 3175 3175 3175 3175 3175 3175 3175 3175 3175 3174 3174 3174 3174 3174 3174 3174 3174 3174 3174 3173 3173 3173 3173 3173 3172 3172 3172 3171 3171 3171 3171 3170 3169 3169 3169 3168 3168 3167 3167 3166 3166 3165 3165 3164 3164 3163
3167 3168 3168 3168 3169 3169 3170 3170 3170 3171 3171 3171 3171 3171 3171 3171 3171 3171 3171 3171 3170 3170 3170 3170 3170 3170 3170 3170 3170 3170 3170 3171 3171 3171 3171 3172 3172 3172 3172 3172 3172 3172 3172 3172 3173 3173 3173 3173 3173 3173 3174 3174 3174 3175 3175 3175 3175 3175 3175 3175 3175 3175 3175 3175 3175 3175 3175 3175 3175 3174 3174 3174 3174 3174 3174 3174 3174 3174 3173 3173 3173 3173 3172 3172 3172 3171 3171 3171 3170 3170 3169 3169 3168 3168 3167 3167 3166 3166 3165 3165 3164 3164 3163
3167 3167 3168 3168 3169 3169 3169 3170 3170 3170 3171 3171 3171 3171 3171 3171 3171 3171 3171 3170 3170 3170 3170 3170 3170 3170 3170 3170 3170 3170 3171 3171 3171 3171 3172 3172 3172 3172 3172 3172 3172 3172 3172 3173 3173 3173 3173 3173 3174 3174 3174 3175 3175 3175 3175 3175 3175 3175 3175 3175 3175 3175 3175 3175 3175 3175 3175 3175 3175 3175 3175 3174 3174 3174 3174 3174 3174 3173 3173 3173 3173 3173 3173 3172 3172 3171 3171 3171 3171 3170 3170 3169 3169 3168 3167 3167 3166 3166 3165 3165 3164 3164 3163
3167 3167 3167 3168 3168 3169 3169 3170 3170 3170 3170 3171 3171 3171 3171 3171 3171 3171 3171 3170 3170 3170 3170 3170 3170 3170 3170 3170 3170 3170 3171 3171 3171 3172 3172 3172 3173 3173 3173 3173 3173 3173 3173 3173 3173 3173 3173 3174 3174 3174 3174 3175 3175 3175 3175 3175 3175 3175 3175 3175 3175 3175 3175 3175 3175 3175 3175 3175 3175 3175 3175 3175 3175 3175 3174 3174 3174 3174 3174 3173 3173 3173 3173 3173 3172 3172 3171 3171 3171 3170 3170 3169 3169 3168 3167 3167 3166 3166 3165 3165 3164 3164 3163
3166 3167 3167 3168 3168 3169 3169 3169 3170 3170 3170 3170 3171 3171 3171 3171 3171 3171 3170 3170 3170 3170 3170 3170 3170 3170 3170 3170 3170 3171 3171 3171 3171 3172 3172 3173 3173 3173 3173 3173 3173 3173 3173 3173 3173 3174 3174 3174 3174 3174 3175 3175 3175 3175 3176 3176 3176 3176 3175 3175 3175 3175 3175 3175 3175 3175 3175 3175 3175 3175 3175 3175 3175 3175 3175 3174 3175 3175 3174 3174 3173 3173 3173 3173 3172 3172 3171 3171 3171 3170 3170 3169 3169 3168 3167 3167 3166 3166 3165 3165 3164 3163 3163
3166 3166 3167 3167 3168 3168 3169 3169 3170 3170 3170 3170 3170 3171 3171 3171 3171 3170 3170 3170 3170 3170 3170 3170 3170 3170 3170 3170 3170 3171 3171 3171 3171 3172 3173 3173 3173 3173 3173 3173 3173 3173 3173 3173 3174 3174 3174 3174 3174 3175 3175 3175 3175 3176 3176 3176 3176 3176 3176 3175 3175 3175 3175 3175 3175 3175 3175 3175 3175 3175 3175 3175 3175 3175 3175 3174 3174 3175 3174 3174 3174 3173 3173 3173 3172 3172 3172 3171 3171 3170 3170 3169 3169 3168 3168 3167 3166 3166 3165 3165 3164 3163 3163
3166 3166 3166 3167 3168 3168 3169 3169 3169 3170 3170 3170 3170 3170 3170 3170 3170 3170 3170 3170 3170 3170 3170 3170 3170 3170 3171 3171 3171 3171 3171 3171 3172 3172 3173 3173 3173 3173 3173 3173 3173 3173 3173 3174 3174 3174 3174 3174 3175 3175 3175 3175 3176 3176 3176 3176 3176 3176 3176 3175 3175 3175 3175 3176 3175 3175 3175 3175 3175 3175 3175 3175 3175 3175 3175 3175 3174 3174 3174 3174 3174 3174 3173 3173 3173 3172 3172 3171 3171 3170 3170 3169 3169 3168 3168 3167 3166 3166 3165 3165 3164 3163 3163
3165 3166 3166 3167 3167 3168 3168 3169 3169 3169 3170 3170 3170 3170 3170 3170 3170 3170 3170 3170 3170 3170 3170 3170 3170 3170 3171 3171 3171 3171 3171 3171 3172 3172 3173 3173 3173 3173 3173 3173 3173 3173 3173 3174 3174 3174 3175 3175 3175 3175 3175 3176 3176 3176 3176 3176 3176 3176 3176 3176 3176 3175 3175 3175 3175 3175 3175 3175 3175 3175 3175 3175 3175 3175 3175 3175 3175 3174 3174 3174 3174 3174 3173 3173 3173 3172 3172 3171 3171 3170 3170 3169 3169 3168 3168 3167 3166 3166 3165 3165 3164 3163 3162
3165 3165 3166 3166 3167 3167 3168 3168 3169 3169 3169 3170 3170 3170 3170 3170 3170 3170 3170 3170 3170 3170 3170 3170 3170 3171 3171 3171 3171 3171 3171 3171 3172 3172 3173 3173 3173 3173 3173 3173 3173 3173 3174 3174 3174 3174 3175 3175 3175 3175 3176 3176 3176 3176 3176 3176 3176 3176 3176 3176 3176 3175 3175 3175 3175 3175 3175 3175 3175 3175 3175 3175 3175 3175 3175 3175 3175 3175 3175 3174 3174 3174 3173 3173 3173 3172 3172 3171 3171 3170 3170 3169 3169 3168 3167 3167 3166 3166 3165 3164 3164 3163 3162
3164 3165 3166 3166 3166 3167 3168 3168 3168 3169 3169 3169 3169 3170 3170 3170 3170 3170 3170 3170 3170 3170 3170 3170 3170 3171 3171 3171 3171 3171 3171 3171 3172 3172 3173 3173 3173 3173 3173 3173 3173 3173 3174 3174 3174 3175 3175 3175 3175 3176 3176 3176 3176 3176 3176 3176 3176 3176 3176 3176 3176 3176 3176 3176 3176 3176 3176 3175 3175 3175 3175 3175 3175 3175 3175 3175 3175 3175 3175 3174 3174 3174 3173 3173 3173 3172 3172 3171 3171 3170 3170 3169 3169 3168 3167 3167 3166 3166 3165 3164 3164 3163 3162
3164 3165 3165 3166 3166 3167 3167 3168 3168 3168 3169 3169 3169 3169 3169 3169 3169 3169 3169 3170 3170 3170 3170 3170 3171 3171 3171 3171 3171 3171 3171 3171 3172 3172 3173 3173 3173 3173 3174 3174 3174 3174 3174 3174 3175 3175 3175 3175 3175 3176 3176 3176 3176 3176 3176 3176 3176 3176 3176 3176 3176 3176 3176 3176 3176 3176 3176 3176 3176 3176 3175 3176 3176 3175 3175 3175 3175 3175 3175 3174 3174 3174 3173 3173 3173 3172 3172 3171 3171 3170 3170 3169 3169 3168 3167 3167 3166 3166 3165 3164 3163 3163 3162
3163 3164 3165 3165 3166 3166 3167 3167 3167 3168 3168 3168 3169 3169 3169 3169 3169 3169 3169 3169 3169 3170 3170 3170 3171 3171 3171 3171 3171 3171 3171 3172 3172 3172 3173 3173 3174 3174 3174 3174 3174 3174 3174 3175 3175 3175 3175 3175 3176 3176 3176 3176 3176 3176 3176 3176 3176 3176 3176 3176 3176 3176 3176 3176 3176 3176 3176 3176 3176 3176 3176 3176 3176 3176 3176 3175 3175 3175 3175 3174 3174 3174 3173 3173 3173 3172 3172 3171 3171 3170 3170 3169 3168 3168 3167 3166 3166 3165 3165 3164 3163 3163 3162
3163 3164 3164 3165 3165 3166 3166 3167 3167 3167 3168 3168 3168 3168 3168 3169 3169 3169 3169 3169 3169 3170 3170 3170 3171 3171 3171 3171 3171 3171 3172 3172 3172 3172 3173 3173 3174 3174 3174 3174 3174 3174 3175 3175 3175 3175 3175 3176 3176 3176 3176 3176 3176 3176 3176 3176 3176 3176 3176 3176 3176 3176 3176 3176 3176 3176 3176 3176 3176 3176 3176 3176 3176 3176 3176 3175 3175 3175 3175 3174 3174 3174 3173 3173 3173 3172 3172 3171 3171 3170 3170 3169 3168 3168 3167 3166 3166 3165 3165 3164 3163 3163 3162
3162 3163 3164 3164 3165 3165 3166 3166 3166 3167 3167 3167 3168 3168 3168 3168 3168 3169 3169 3169 3169 3170 3170 3170 3171 3171 3171 3171 3171 3171 3172 3172 3172 3172 3173 3173 3174 3174 3174 3174 3174 3175 3175 3175 3175 3176 3176 3176 3176 3176 3176 3176 3176 3176 3176 3176 3176 3176 3176 3176 3176 3176 3176 3176 3176 3176 3176 3176 3176 3176 3176 3176 3176 3176 3176 3176 3175 3175 3175 3174 3174 3174 3173 3173 3173 3172 3172 3171 3171 3170 3170 3169 3168 3168 3167 3166 3166 3165 3165 3164 3163 3162 3162
3161 3162 3163 3164 3164 3165 3165 3166 3166 3166 3167 3167 3167 3167 3168 3168 3168 3168 3168 3169 3169 3169 3170 3170 3171 3171 3171 3171 3171 3172 3172 3172 3172 3172 3173 3173 3174 3174 3174 3174 3175 3175 3175 3175 3176 3176 3176 3176 3176 3176 3176 3177 3177 3176 3176 3176 3176 3176 3176 3176 3176 3176 3176 3176 3176 3176 3176 3176 3176 3176 3176 3176 3176 3176 3176 3176 3176 3175 3175 3175 3174 3174 3173 3173 3172 3172 3171 3171 3171 3170 3170 3169 3168 3168 3167 3166 3166 3165 3164 3164 3163 3162 3162
3161 3162 3162 3163 3164 3164 3165 3165 3166 3166 3166 3166 3167 3167 3167 3167 3168 3168 3168 3169 3169 3169 3170 3170 3171 3171 3171 3171 3171 3172 3172 3172 3172 3172 3173 3173 3174 3174 3174 3174 3175 3175 3175 3175 3176 3176 3176 3176 3176 3176 3177 3177 3177 3177 3176 3176 3176 3176 3176 3177 3177 3177 3176 3176 3176 3176 3176 3176 3176 3176 3176 3176 3176 3176 3176 3176 3176 3175 3175 3175 3174 3174 3173 3173 3172 3172 3171 3171 3171 3170 3169 3169 3168 3168 3167 3166 3166 3165 3164 3164 3163 3162 3162
3160 3161 3161 3162 3163 3163 3164 3165 3165 3165 3166 3166 3166 3166 3167 3167 3167 3168 3168 3168 3169 3169 3170 3170 3170 3171 3171 3171 3172 3172 3172 3172 3172 3173 3173 3173 3174 3174 3174 3175 3175 3175 3175 3175 3176 3176 3176 3176 3176 3177 3177 3177 3177 3177 3177 3177 3177 3177 3177 3177 3177 3177 3177 3177 3177 3177 3176 3176 3176 3176 3176 3176 3176 3176 3176 3176 3176 3175 3175 3175 3174 3174 3173 3173 3172 3172 3171 3171 3170 3170 3169 3169 3168 3167 3167 3166 3166 3165 3164 3164 3163 3162 3161
3159 3160 3161 3161 3162 3163 3163 3164 3164 3165 3165 3166 3166 3166 3166 3167 3167 3167 3168 3168 3168 3169 3169 3170 3170 3171 3171 3171 3172 3172 3172 3172 3173 3173 3173 3173 3174 3174 3174 3175 3175 3175 3175 3175 3176 3176 3176 3176 3177 3177 3176 3176 3177 3177 3177 3177 3177 3177 3177 3177 3176 3176 3177 3177 3177 3177 3177 3177 3177 3176 3176 3176 3176 3176 3176 3176 3176 3175 3175 3175 3174 3174 3173 3172 3172 3171 3171 3171 3170 3170 3169 3169 3168 3167 3167 3166 3166 3165 3164 3164 3163 3162 3161
3158 3159 3160 3161 3161 3162 3163 3163 3164 3164 3165 3165 3165 3166 3166 3166 3167 3167 3167 3168 3168 3169 3169 3170 3170 3170 3171 3171 3171 3172 3172 3172 3173 3173 3173 3173 3174 3174 3174 3174 3175 3175 3175 3175 3176 3176 3176 3176 3177 3176 3176 3176 3176 3177 3177 3177 3177 3177 3177 3177 3177 3176 3177 3177 3177 3177 3177 3177 3177 3177 3176 3176 3176 3176 3176 3176 3176 3175 3175 3174 3174 3173 3173 3172 3172 3171 3171 3171 3170 3170 3169 3168 3168 3167 3167 3166 3166 3165 3164 3164 3163 3162 3161
3157 3158 3159 3160 3161 3161 3162 3162 3163 3163 3164 3164 3165 3165 3166 3166 3166 3167 3167 3167 3168 3168 3169 3169 3170 3170 3171 3171 3171 3172 3172 3172 3173 3173 3173 3173 3174 3174 3174 3174 3175 3175 3175 3175 3176 3176 3176 3177 3177 3176 3176 3176 3176 3177 3177 3177 3177 3177 3177 3177 3177 3177 3177 3177 3177 3177 3177 3177 3177 3177 3177 3177 3176 3176 3176 3176 3176 3175 3175 3174 3174 3173 3173 3172 3172 3171 3171 3171 3170 3170 3169 3168 3168 3167 3167 3166 3166 3165 3164 3164 3163 3162 3161
3156 3157 3158 3159 3159 3160 3161 3161 3162 3162 3163 3164 3164 3165 3165 3166 3166 3166 3166 3167 3168 3168 3169 3169 3170 3170 3170 3171 3171 3171 3172 3172 3173 3173 3173 3173 3174 3174 3174 3175 3175 3175 3175 3175 3176 3176 3176 3176 3176 3176 3176 3176 3176 3177 3177 3177 3177 3177 3177 3177 3177 3177 3177 3177 3177 3177 3176 3177 3177 3177 3177 3177 3176 3176 3176 3176 3175 3175 3175 3174 3174 3173 3173 3172 3172 3171 3171 3171 3170 3170 3169 3168 3168 3167 3166 3166 3166 3165 3164 3163 3163 3162 3161
3155 3156 3156 3157 3158 3159 3160 3160 3161 3161 3162 3163 3163 3164 3164 3165 3165 3166 3166 3167 3167 3168 3168 3169 3169 3170 3170 3171 3171 3171 3172 3172 3172 3173 3173 3173 3174 3174 3174 3174 3175 3175 3175 3175 3176 3176 3176 3176 3176 3176 3176 3176 3176 3176 3177 3177 3177 3177 3177 3177 3177 3177 3177 3177 3177 3177 3177 3177 3177 3177 3177 3177 3176 3176 3176 3176 3175 3175 3174 3174 3174 3173 3173 3172 3172 3171 3171 3170 3170 3169 3169 3168 3167 3167 3166 3166 3165 3165 3164 3163 3163 3162 3161
3154 3155 3155 3156 3157 3158 3158 3159 3160 3161 3161 3162 3163 3163 3164 3164 3165 3165 3166 3166 3167 3167 3168 3168 3169 3169 3170 3170 3171 3171 3171 3172 3172 3172 3173 3173 3174 3174 3174 3174 3174 3175 3175 3175 3176 3176 3176 3176 3176 3176 3176 3176 3176 3176 3176 3176 3177 3177 3177 3177 3177 3177 3177 3177 3177 3177 3177 3177 3177 3177 3176 3176 3176 3176 3176 3175 3175 3175 3174 3174 3173 3173 3173 3172 3172 3171 3171 3170 3170 3169 3169 3168 3167 3167 3166 3166 3165 3165 3164 3163 3162 3162 3161
3152 3153 3154 3155 3156 3157 3157 3158 3159 3160 3161 3161 3162 3163 3163 3164 3164 3165 3165 3166 3166 3167 3167 3168 3169 3169 3170 3170 3171 3171 3171 3171 3172 3172 3173 3173 3173 3174 3174 3174 3174 3174 3175 3175 3175 3176 3176 3176 3176 3176 3176 3176 3176 3176 3176 3176 3177 3177 3177 3177 3177 3177 3177 3177 3177 3177 3177 3177 3177 3177 3176 3176 3176 3176 3175 3175 3175 3175 3174 3174 3173 3173 3172 3172 3172 3171 3171 3170 3170 3169 3168 3168 3167 3167 3166 3166 3165 3164 3164 3163 3162 3162 3161
3151 3152 3153 3154 3155 3156 3157 3158 3159 3159 3160 3161 3161 3162 3163 3163 3164 3164 3165 3165 3166 3166 3167 3168 3168 3169 3169 3170 3170 3171 3171 3171 3171 3172 3172 3173 3173 3173 3174 3174 3174 3174 3174 3175 3175 3176 3176 3176 3176 3176 3176 3176 3176 3176 3176 3176 3176 3177 3177 3177 3176 3176 3177 3177 3177 3177 3177 3177 3177 3176 3176 3176 3176 3176 3175 3175 3175 3174 3174 3174 3173 3173 3172 3172 3171 3171 3171 3170 3169 3169 3168 3168 3167 3166 3166 3165 3165 3164 3164 3163 3162 3161 3161
3151 3151 3152 3153 3155 3156 3156 3157 3158 3159 3159 3160 3161 3161 3162 3163 3163 3164 3164 3165 3166 3166 3167 3167 3168 3168 3169 3169 3170 3170 3171 3171 3171 3171 3172 3172 3173 3173 3173 3174 3174 3174 3174 3175 3175 3175 3176 3176 3176 3176 3176 3176 3176 3176 3176 3176 3176 3176 3176 3176 3176 3176 3176 3176 3176 3176 3176 3176 3176 3176 3176 3175 3175 3175 3175 3175 3174 3174 3174 3174 3173 3173 3172 3172 3171 3171 3170 3170 3169 3169 3168 3167 3167 3166 3166 3165 3165 3164 3163 3163 3162 3161 3161
3150 3151 3151 3153 3154 3155 3156 3156 3157 3158 3159 3159 3160 3161 3161 3162 3162 3163 3164 3164 3165 3166 3166 3167 3167 3168 3168 3169 3169 3170 3170 3171 3171 3171 3172 3172 3173 3173 3173 3173 3173 3174 3174 3174 3175 3175 3175 3175 3175 3176 3176 3176 3176 3176 3176 3176 3176 3176 3176 3176 3176 3176 3176 3176 3176 3176 3176 3176 3176 3176 3175 3175 3175 3175 3175 3174 3174 3174 3174 3173 3173 3172 3172 3172 3171 3171 3170 3170 3169 3168 3168 3167 3167 3166 3166 3165 3165 3164 3163 3162 3162 3161 3161
3149 3150 3151 3152 3153 3154 3155 3155 3156 3157 3158 3158 3159 3160 3161 3161 3161 3162 3163 3164 3164 3165 3166 3166 3167 3167 3168 3168 3169 3169 3170 3170 3171 3171 3171 3172 3172 3173 3173 3173 3173 3173 3174 3174 3174 3175 3175 3175 3175 3175 3176 3176 3176 3176 3176 3176 3176 3176 3176 3176 3176 3176 3176 3176 3176 3176 3176 3176 3176 3175 3175 3175 3175 3175 3174 3174 3174 3173 3173 3173 3172 3172 3172 3171 3171 3171 3170 3169 3169 3168 3168 3167 3167 3166 3166 3165 3164 3164 3163 3162 3162 3161 3161
3148 3149 3150 3151 3152 3153 3154 3154 3155 3156 3157 3157 3158 3159 3160 3160 3161 3161 3162 3163 3164 3164 3165 3166 3166 3167 3167 3168 3168 3169 3169 3170 3170 3171 3171 3171 3172 3172 3172 3173 3173 3173 3173 3174 3174 3174 3174 3175 3175 3175 3175 3175 3175 3176 3176 3176 3176 3176 3176 3176 3176 3176 3176 3176 3176 3176 3176 3175 3175 3175 3175 3175 3174 3174 3174 3174 3173 3173 3173 3172 3172 3172 3171 3171 3171 3170 3170 3169 3169 3168 3168 3167 3166 3166 3165 3165 3164 3163 3163 3162 3161 3161 3160
3146 3147 3148 3149 3151 3151 3152 3153 3154 3155 3156 3156 3157 3158 3159 3160 3160 3161 3162 3162 3163 3164 3165 3165 3166 3166 3167 3167 3168 3168 3169 3169 3170 3170 3171 3171 3171 3172 3172 3172 3172 3173 3173 3173 3173 3174 3174 3174 3174 3175 3175 3175 3175 3175 3175 3175 3175 3176 3176 3176 3176 3176 3176 3175 3175 3175 3175 3175 3175 3175 3175 3174 3174 3174 3173 3173 3173 3173 3172 3172 3172 3171 3171 3171 3171 3170 3170 3169 3169 3168 3168 3167 3166 3166 3165 3164 3164 3163 3162 3162 3161 3161 3160
3146 3146 3147 3148 3149 3150 3151 3152 3153 3154 3155 3156 3156 3157 3158 3159 3160 3160 3161 3162 3163 3163 3164 3165 3165 3166 3166 3167 3167 3168 3168 3169 3169 3170 3170 3171 3171 3171 3171 3172 3172 3172 3172 3173 3173 3173 3174 3174 3174 3174 3174 3174 3175 3175 3175 3175 3175 3175 3175 3175 3175 3175 3175 3175 3175 3175 3175 3175 3175 3174 3174 3174 3174 3173 3173 3173 3172 3172 3172 3171 3171 3171 3171 3171 3170 3170 3169 3169 3168 3168 3167 3167 3166 3166 3165 3164 3163 3163 3162 3161 3161 3160 3160
3145 3146 3146 3147 3148 3149 3150 3151 3152 3153 3154 3155 3156 3157 3158 3158 3159 3160 3161 3161 3162 3163 3164 3164 3165 3165 3166 3166 3167 3167 3168 3168 3169 3169 3170 3170 3171 3171 3171 3171 3171 3171 3172 3172 3172 3173 3173 3173 3174 3174 3174 3174 3174 3174 3174 3175 3175 3175 3175 3175 3175 3175 3175 3175 3175 3175 3175 3174 3174 3174 3174 3174 3173 3173 3173 3172 3172 3172 3171 3171 3171 3171 3171 3170 3170 3170 3169 3169 3168 3168 3167 3166 3166 3165 3165 3164 3163 3163 3162 3161 3161 3160 3160
3143 3144 3145 3146 3147 3148 3149 3150 3151 3152 3153 3154 3155 3156 3157 3158 3158 3159 3160 3161 3161 3162 3163 3164 3164 3165 3165 3166 3166 3167 3167 3168 3168 3169 3169 3170 3170 3170 3170 3171 3171 3171 3171 3171 3172 3172 3172 3173 3173 3173 3173 3173 3173 3174 3174 3174 3174 3174 3174 3174 3174 3174 3174 3174 3174 3174 3174 3174 3174 3174 3173 3173 3173 3173 3172 3172 3172 3171 3171 3171 3171 3170 3170 3170 3169 3169 3169 3168 3168 3167 3166 3166 3166 3165 3164 3164 3163 3162 3162 3161 3161 3160 3159
3142 3143 3144 3145 3146 3147 3148 3149 3150 3151 3152 3153 3154 3155 3156 3157 3158 3158 3159 3160 3161 3161 3162 3163 3163 3164 3164 3165 3166 3166 3167 3167 3168 3168 3169 3169 3169 3170 3170 3170 3170 3170 3171 3171 3171 3172 3172 3172 3172 3172 3173 3173 3173 3173 3173 3173 3173 3174 3174 3174 3174 3174 3174 3174 3174 3174 3174 3174 3173 3173 3173 3173 3172 3172 3172 3172 3171 3171 3171 3171 3170 3170 3170 3169 3169 3168 3168 3168 3167 3166 3166 3166 3165 3164 3164 3163 3163 3162 3161 3161 3160 3160 3159
3141 3141 3142 3143 3145 3146 3147 3148 3149 3150 3151 3152 3153 3154 3155 3156 3157 3157 3158 3159 3159 3160 3161 3161 3162 3163 3163 3164 3165 3165 3166 3166 3167 3167 3168 3168 3169 3169 3169 3169 3170 3170 3170 3170 3171 3171 3171 3172 3172 3172 3172 3172 3172 3173 3173 3173 3173 3173 3173 3173 3173 3173 3173 3173 3173 3173 3173 3173 3173 3173 3173 3172 3172 3172 3172 3171 3171 3171 3171 3170 3170 3169 3169 3169 3168 3168 3167 3167 3166 3166 3166 3165 3164 3164 3163 3163 3162 3161 3161 3160 3160 3159 3158
3139 3140 3141 3142 3143 3144 3146 3147 3148 3149 3150 3151 3152 3153 3154 3155 3156 3156 3157 3157 3158 3159 3160 3161 3161 3162 3162 3163 3164 3165 3165 3166 3166 3167 3167 3168 3168 3168 3168 3169 3169 3169 3169 3170 3170 3171 3171 3171 3171 3171 3172 3172 3172 3172 3172 3172 3172 3172 3172 3172 3173 3173 3173 3173 3173 3173 3173 3173 3173 3172 3172 3172 3172 3171 3171 3171 3171 3171 3170 3170 3169 3169 3168 3168 3168 3167 3167 3166 3166 3166 3165 3164 3164 3163 3163 3162 3161 3161 3160 3160 3159 3158 3158
3137 3139 3140 3141 3142 3143 3144 3146 3147 3148 3149 3150 3151 3152 3153 3154 3154 3155 3156 3156 3157 3158 3159 3160 3161 3161 3162 3162 3163 3164 3164 3165 3166 3166 3166 3167 3167 3167 3168 3168 3168 3168 3169 3169 3169 3170 3170 3171 3171 3171 3171 3171 3171 3171 3171 3172 3172 3172 3172 3172 3172 3172 3172 3172 3172 3172 3172 3172 3172 3172 3172 3171 3171 3171 3171 3171 3170 3170 3170 3169 3169 3168 3168 3167 3167 3166 3166 3166 3165 3165 3164 3164 3163 3163 3162 3161 3161 3160 3160 3159 3158 3158 3157
3136 3137 3138 3140 3141 3142 3143 3144 3146 3147 3148 3149 3150 3151 3151 3152 3153 3154 3155 3156 3156 3157 3158 3159 3160 3161 3161 3162 3162 3163 3163 3164 3165 3165 3166 3166 3166 3166 3167 3167 3167 3167 3168 3168 3169 3169 3170 3170 3170 3170 3170 3171 3171 3171 3171 3171 3171 3171 3171 3171 3171 3171 3171 3172 3172 3172 3172 3172 3171 3171 3171 3171 3171 3171 3170 3170 3170 3169 3169 3169 3168 3168 3167 3167 3166 3166 3166 3165 3165 3164 3163 3163 3162 3162 3161 3161 3160 3160 3159 3158 3158 3157 3156
3133 3135 3137 3138 3139 3141 3142 3143 3145 3146 3146 3147 3148 3150 3151 3151 3152 3153 3154 3155 3156 3156 3157 3158 3159 3160 3160 3161 3161 3162 3162 3163 3164 3164 3165 3165 3166 3166 3166 3166 3166 3167 3167 3167 3168 3168 3169 3169 3169 3169 3170 3170 3170 3170 3170 3170 3170 3171 3171 3171 3171 3171 3171 3171 3171 3171 3171 3171 3171 3171 3171 3170 3170 3170 3170 3169 3169 3169 3168 3168 3167 3167 3166 3166 3166 3165 3165 3164 3164 3163 3163 3162 3161 3161 3160 3160 3159 3159 3158 3158 3157 3156 3156
3131 3133 3135 3136 3138 3139 3141 3142 3143 3144 3145 3146 3147 3148 3149 3150 3151 3152 3153 3154 3154 3155 3156 3157 3158 3158 3159 3160 3160 3161 3161 3162 3163 3163 3164 3164 3165 3165 3165 3165 3166 3166 3166 3166 3167 3167 3168 3168 3168 3169 3169 3169 3169 3169 3169 3169 3169 3170 3170 3170 3170 3170 3170 3170 3170 3170 3170 3170 3170 3170 3170 3170 3169 3169 3169 3169 3168 3168 3168 3167 3167 3166 3166 3165 3165 3164 3164 3163 3163 3162 3162 3161 3161 3160 3159 3159 3158 3158 3157 3157 3156 3156 3155
3130 3131 3133 3135 3136 3138 3139 3141 3142 3143 3144 3145 3146 3147 3148 3149 3150 3151 3151 3152 3153 3154 3155 3156 3157 3157 3158 3159 3159 3160 3161 3161 3162 3162 3163 3163 3164 3164 3164 3164 3165 3165 3165 3166 3166 3166 3167 3167 3168 3168 3168 3168 3168 3168 3168 3168 3168 3169 3169 3169 3169 3169 3169 3169 3169 3169 3169 3169 3169 3169 3169 3168 3168 3168 3168 3167 3167 3167 3167 3166 3166 3165 3165 3164 3164 3163 3163 3162 3162 3161 3161 3161 3160 3159 3158 3158 3157 3157 3156 3156 3156 3155 3154
3128 3130 3132 3134 3135 3136 3138 3139 3140 3141 3142 3143 3145 3146 3147 3148 3149 3150 3151 3151 3152 3153 3154 3155 3156 3156 3157 3158 3158 3159 3160 3160 3161 3161 3162 3162 3163 3163 3163 3164 3164 3164 3164 3165 3165 3166 3166 3166 3166 3167 3167 3167 3167 3167 3167 3167 3167 3167 3168 3168 3168 3168 3168 3168 3168 3168 3168 3168 3168 3167 3167 3167 3167 3167 3166 3166 3166 3166 3166 3165 3165 3164 3164 3163 3163 3162 3162 3161 3161 3161 3160 3160 3159 3158 3158 3157 3156 3156 3156 3155 3155 3154 3154
3127 3129 3131 3132 3134 3135 3136 3137 3138 3139 3140 3142 3143 3144 3146 3146 3148 3148 3149 3150 3151 3152 3153 3154 3155 3155 3156 3156 3157 3158 3159 3159 3160 3160 3161 3161 3162 3162 3162 3163 3163 3163 3163 3164 3164 3164 3165 3165 3166 3166 3166 3166 3166 3166 3166 3166 3166 3166 3166 3167 3167 3167 3167 3167 3167 3167 3167 3166 3166 3166 3166 3166 3166 3166 3166 3165 3165 3165 3165 3164 3164 3163 3162 3162 3161 3161 3161 3160 3160 3160 3159 3159 3158 3158 3157 3156 3156 3155 3155 3154 3154 3153 3153
3126 3127 3129 3131 3132 3134 3135 3136 3136 3137 3138 3140 3141 3143 3144 3145 3146 3147 3148 3149 3149 3150 3151 3152 3153 3154 3155 3155 3156 3157 3157 3158 3159 3159 3160 3160 3161 3161 3161 3162 3162 3162 3162 3163 3163 3163 3164 3164 3164 3164 3165 3165 3165 3165 3166 3166 3166 3166 3166 3166 3166 3166 3166 3166 3166 3165 3165 3165 3165 3165 3165 3164 3164 3164 3164 3164 3164 3164 3163 3163 3162 3162 3161 3161 3161 3160 3160 3159 3159 3159 3158 3158 3157 3157 3156 3156 3155 3155 3154 3154 3153 3152 3152
3124 3126 3128 3130 3131 3132 3133 3133 3134 3135 3136 3138 3140 3141 3143 3144 3145 3146 3146 3147 3148 3149 3150 3151 3152 3153 3153 3154 3155 3156 3156 3157 3158 3158 3158 3159 3159 3160 3160 3161 3161 3161 3161 3162 3162 3162 3162 3163 3163 3163 3163 3164 3164 3164 3164 3164 3164 3164 3164 3164 3164 3164 3164 3164 3164 3164 3164 3164 3164 3163 3163 3162 3163 3163 3163 3163 3163 3163 3162 3162 3161 3161 3160 3160 3159 3159 3159 3158 3158 3158 3157 3157 3156 3156 3155 3155 3154 3154 3153 3153 3152 3152 3151
3122 3124 3126 3128 3129 3131 3131 3131 3132 3133 3134 3136 3138 3140 3141 3142 3143 3144 3145 3145 3146 3147 3148 3149 3151 3151 3152 3153 3154 3155 3155 3156 3156 3156 3157 3157 3158 3158 3159 3159 3160 3160 3160 3161 3161 3161 3161 3161 3161 3162 3162 3162 3163 3163 3163 3163 3163 3163 3163 3163 3163 3163 3163 3163 3163 3163 3163 3163 3162 3162 3161 3161 3161 3162 3162 3162 3162 3161 3161 3161 3160 3160 3159 3159 3158 3158 3158 3157 3157 3156 3156 3156 3155 3155 3154 3154 3153 3153 3152 3152 3151 3151 3150
3121 3122 3124 3126 3127 3128 3129 3129 3130 3131 3132 3134 3136 3137 3138 3140 3141 3142 3143 3143 3144 3146 3147 3148 3149 3150 3151 3152 3152 3153 3154 3154 3155 3155 3156 3156 3156 3157 3157 3158 3158 3158 3159 3159 3159 3160 3160 3160 3160 3161 3161 3161 3161 3161 3162 3162 3162 3162 3162 3162 3162 3162 3162 3162 3162 3162 3162 3161 3161 3161 3160 3160 3160 3161 3161 3161 3161 3161 3160 3159 3159 3158 3158 3157 3157 3157 3156 3156 3156 3156 3155 3155 3154 3154 3153 3153 3152 3152 3151 3151 3151 3150 3149
3119 3121 3122 3123 3125 3126 3127 3127 3128 3129 3130 3131 3133 3135 3136 3137 3139 3140 3141 3142 3143 3144 3146 3147 3147 3148 3149 3150 3151 3151 3152 3153 3153 3154 3154 3155 3155 3155 3156 3156 3156 3157 3157 3158 3158 3158 3159 3159 3159 3159 3159 3160 3160 3160 3160 3161 3161 3161 3161 3161 3161 3161 3161 3161 3161 3161 3161 3160 3160 3159 3159 3159 3159 3159 3160 3160 3160 3159 3159 3158 3158 3157 3157 3156 3156 3156 3156 3155 3155 3155 3154 3154 3153 3153 3152 3152 3151 3151 3150 3150 3150 3149 3148
3117 3119 3120 3121 3123 3124 3124 3125 3126 3127 3128 3129 3131 3133 3135 3136 3138 3139 3140 3141 3142 3143 3145 3145 3146 3147 3147 3148 3149 3150 3151 3151 3152 3152 3152 3153 3153 3154 3154 3155 3155 3155 3156 3156 3156 3157 3157 3157 3157 3158 3158 3158 3158 3158 3159 3159 3159 3159 3160 3159 3160 3160 3160 3160 3160 3160 3159 3159 3159 3158 3157 3157 3158 3158 3159 3159 3158 3158 3157 3157 3156 3156 3155 3155 3155 3155 3154 3154 3154 3153 3153 3153 3152 3152 3151 3151 3151 3150 3150 3149 3148 3148 3147
3115 3116 3117 3119 3120 3121 3121 3122 3124 3125 3126 3127 3129 3131 3133 3135 3136 3138 3139 3140 3141 3142 3143 3143 3144 3145 3146 3146 3147 3148 3149 3150 3150 3150 3151 3151 3152 3152 3153 3153 3154 3154 3154 3154 3155 3155 3155 3156 3156 3156 3156 3157 3157 3157 3157 3157 3158 3158 3158 3158 3158 3158 3158 3159 3159 3158 3158 3158 3158 3157 3156 3156 3156 3157 3157 3157 3157 3156 3156 3155 3155 3154 3154 3154 3153 3153 3153 3153 3152 3152 3152 3151 3151 3151 3150 3150 3150 3149 3149 3148 3147 3147 3146
3113 3114 3115 3116 3117 3118 3119 3120 3121 3123 3124 3126 3128 3130 3131 3133 3134 3136 3137 3138 3139 3139 3140 3141 3142 3143 3144 3145 3146 3147 3147 3148 3148 3148 3149 3150 3151 3151 3152 3152 3152 3152 3152 3152 3153 3153 3154 3154 3154 3155 3155 3155 3155 3155 3155 3156 3156 3156 3156 3156 3157 3157 3157 3157 3157 3157 3157 3157 3156 3156 3155 3155 3155 3156 3156 3156 3156 3155 3155 3154 3153 3153 3152 3152 3152 3152 3151 3151 3151 3151 3151 3150 3150 3150 3149 3149 3148 3148 3147 3147 3146 3146 3145
3110 3111 3113 3114 3115 3116 3117 3118 3120 3121 3122 3124 3126 3128 3129 3131 3132 3133 3134 3135 3136 3137 3138 3139 3140 3141 3142 3143 3144 3145 3145 3146 3146 3146 3147 3149 3150 3150 3150 3150 3150 3150 3151 3151 3151 3151 3152 3152 3153 3153 3154 3154 3153 3153 3153 3154 3154 3154 3155 3155 3155 3155 3156 3156 3156 3156 3156 3156 3155 3155 3154 3154 3154 3154 3154 3155 3154 3154 3154 3153 3152 3151 3151 3151 3150 3150 3150 3150 3150 3150 3149 3149 3149 3148 3148 3148 3147 3147 3146 3146 3145 3145 3144
3107 3108 3110 3111 3112 3114 3115 3116 3118 3119 3121 3123 3125 3126 3127 3128 3129 3130 3131 3133 3134 3135 3136 3137 3138 3139 3140 3141 3142 3142 3143 3143 3144 3145 3146 3147 3148 3148 3147 3148 3148 3148 3149 3149 3149 3149 3150 3151 3151 3152 3152 3152 3151 3151 3151 3152 3152 3152 3153 3153 3153 3154 3154 3154 3154 3154 3154 3154 3154 3154 3153 3152 3152 3153 3153 3153 3153 3153 3152 3152 3151 3151 3150 3149 3149 3148 3148 3148 3148 3148 3148 3148 3147 3147 3147 3146 3146 3146 3145 3145 3144 3143 3143
3103 3104 3105 3107 3110 3111 3113 3114 3116 3118 3120 3121 3122 3124 3125 3126 3127 3128 3129 3131 3131 3133 3134 3135 3136 3137 3138 3139 3140 3141 3141 3142 3143 3144 3144 3145 3145 3145 3145 3146 3146 3147 3147 3147 3147 3147 3148 3149 3150 3150 3150 3150 3149 3149 3149 3150 3150 3151 3151 3151 3151 3152 3152 3152 3152 3152 3153 3153 3153 3152 3151 3151 3151 3151 3151 3151 3151 3151 3151 3151 3150 3150 3149 3148 3147 3147 3146 3146 3146 3146 3146 3146 3146 3146 3146 3145 3145 3144 3144 3143 3143 3142 3141
3101 3102 3103 3105 3108 3110 3111 3113 3114 3116 3117 3118 3120 3122 3123 3124 3125 3126 3128 3129 3130 3131 3132 3133 3134 3135 3136 3137 3138 3139 3140 3141 3141 3142 3142 3143 3143 3143 3144 3145 3145 3145 3145 3145 3145 3145 3147 3148 3148 3147 3147 3147 3147 3147 3147 3148 3148 3148 3148 3149 3149 3150 3150 3150 3150 3151 3151 3151 3151 3151 3150 3150 3149 3149 3150 3150 3150 3150 3150 3149 3149 3148 3148 3147 3146 3146 3145 3145 3145 3145 3145 3145 3145 3145 3144 3144 3144 3143 3143 3142 3141 3141 3140
3100 3101 3103 3105 3107 3109 3110 3111 3113 3114 3115 3116 3117 3119 3121 3122 3124 3125 3126 3127 3129 3130 3131 3131 3132 3133 3134 3136 3137 3138 3138 3139 3139 3140 3140 3141 3141 3142 3142 3143 3143 3143 3143 3143 3143 3145 3146 3146 3145 3144 3144 3145 3145 3145 3146 3146 3146 3146 3146 3146 3147 3147 3147 3148 3148 3148 3149 3149 3149 3149 3148 3148 3148 3147 3148 3148 3148 3148 3148 3148 3148 3147 3146 3146 3145 3144 3144 3143 3143 3143 3144 3144 3143 3143 3143 3143 3142 3142 3141 3141 3140 3140 3139
3098 3100 3102 3103 3105 3107 3109 3110 3111 3112 3113 3115 3116 3118 3120 3121 3122 3123 3125 3126 3127 3128 3129 3130 3131 3132 3133 3134 3135 3136 3137 3137 3137 3138 3138 3139 3140 3140 3140 3140 3141 3141 3141 3141 3142 3143 3143 3143 3142 3142 3142 3143 3143 3143 3144 3144 3144 3144 3144 3145 3145 3145 3145 3145 3146 3146 3146 3147 3147 3147 3147 3146 3146 3146 3146 3146 3146 3146 3146 3146 3146 3146 3145 3145 3144 3143 3142 3142 3142 3142 3142 3142 3142 3142 3141 3141 3141 3141 3140 3139 3139 3138 3138
3097 3099 3101 3102 3104 3105 3107 3108 3109 3110 3111 3113 3115 3117 3118 3120 3121 3121 3122 3123 3125 3126 3127 3128 3129 3130 3131 3132 3133 3134 3134 3135 3135 3136 3136 3137 3137 3138 3138 3138 3139 3139 3139 3139 3140 3140 3140 3140 3140 3140 3141 3141 3141 3141 3142 3142 3142 3142 3142 3143 3143 3143 3143 3143 3143 3143 3144 3144 3145 3145 3145 3144 3144 3144 3143 3143 3144 3144 3144 3144 3144 3144 3144 3143 3142 3142 3141 3141 3140 3140 3140 3140 3140 3140 3140 3140 3139 3139 3139 3138 3137 3137 3136
3096 3097 3099 3101 3102 3103 3105 3106 3106 3108 3110 3111 3113 3115 3116 3117 3118 3119 3120 3121 3123 3124 3126 3126 3127 3128 3129 3130 3131 3131 3131 3132 3133 3134 3134 3135 3135 3135 3136 3137 3137 3137 3137 3137 3137 3137 3137 3137 3138 3138 3139 3139 3139 3139 3139 3140 3140 3140 3141 3141 3141 3141 3140 3140 3141 3141 3141 3142 3142 3142 3142 3142 3142 3141 3141 3141 3141 3141 3142 3142 3142 3142 3142 3141 3141 3140 3140 3139 3139 3138 3138 3138 3138 3138 3138 3138 3138 3137 3137 3137 3136 3136 3135
3094 3096 3097 3099 3100 3101 3102 3103 3104 3106 3107 3109 3111 3113 3114 3115 3117 3118 3119 3120 3121 3122 3123 3124 3125 3126 3127 3127 3128 3128 3129 3130 3131 3131 3132 3132 3132 3133 3135 3135 3135 3135 3135 3135 3135 3135 3135 3135 3136 3136 3136 3136 3137 3137 3137 3137 3138 3138 3139 3139 3139 3139 3138 3138 3138 3139 3139 3139 3139 3139 3139 3139 3139 3139 3139 3139 3139 3139 3139 3140 3140 3140 3140 3139 3139 3138 3138 3137 3137 3136 3136 3136 3136 3136 3136 3136 3136 3136 3136 3135 3135 3134 3134
3092 3094 3096 3097 3097 3097 3098 3101 3102 3104 3105 3107 3109 3110 3112 3113 3115 3116 3117 3118 3119 3120 3121 3122 3123 3124 3125 3125 3126 3126 3127 3128 3129 3129 3129 3129 3130 3131 3133 3133 3133 3133 3133 3133 3133 3133 3133 3133 3133 3133 3134 3134 3134 3135 3135 3136 3136 3136 3136 3136 3137 3136 3136 3136 3136 3136 3137 3137 3137 3137 3137 3136 3136 3136 3136 3136 3136 3136 3137 3137 3137 3137 3137 3137 3137 3136 3136 3136 3135 3134 3134 3133 3133 3133 3134 3134 3134 3134 3134 3134 3133 3133 3132